CW5346 Weather Reports


Display with metric or nautical units.
time (UTC)temp
F
wind
direction
speed
MPH
gust
MPH
rain 1hr
in
rain 24hr
in
rain mn
in
humidity
%
barometer
mb
20260831062603 66 218 0.0 0.0 0.00 0.03 0.00 97 1019.0
20260831061625 66 218 0.0 0.0 0.00 0.03 0.00 97 1019.0
20260831060603 66 218 0.0 0.0 0.00 0.03 0.00 97 1019.1
20260831054604 66 218 0.0 0.0 0.00 0.03 0.00 97 1019.0
20260831053603 66 218 0.0 0.0 0.00 0.03 0.00 97 1019.1
20260831052603 67 218 0.0 0.0 0.00 0.03 0.00 97 1019.0
20260831051604 67 218 0.0 0.0 0.00 0.03 0.00 97 1019.2
20260831050604 67 218 0.0 0.0 0.00 0.03 0.00 97 1019.1
20260831045624 67 218 0.0 0.0 0.00 0.03 0.00 97 1019.0
20260831044603 67 218 0.0 0.0 0.00 0.03 0.00 97 1019.2
20260831043625 67 218 0.0 0.0 0.00 0.03 0.00 97 1019.2
20260831042603 67 218 0.0 0.0 0.00 0.03 0.00 97 1019.0
20260831041603 68 218 0.0 0.0 0.00 0.03 0.00 96 1019.0
20260831040604 68 218 0.0 0.0 0.00 0.03 0.00 96 1018.8
20260831035624 68 218 0.0 0.0 0.00 0.03 0.03 96 1018.7
20260831034603 69 218 0.0 0.0 0.00 0.03 0.03 96 1018.8
20260831033604 69 218 0.0 0.0 0.00 0.03 0.03 96 1018.8
20260831032603 70 218 0.0 0.0 0.00 0.03 0.03 97 1018.8
20260831031604 70 218 0.0 0.0 0.00 0.03 0.03 97 1019.0
20260831030604 70 218 0.0 0.0 0.00 0.03 0.03 97 1018.9
20260831025603 70 218 0.0 0.0 0.00 0.03 0.03 97 1019.1
20260831024603 71 218 0.0 0.0 0.00 0.03 0.03 96 1019.3
20260831023603 71 218 0.0 0.0 0.00 0.03 0.03 96 1019.1
20260831022604 71 218 0.0 0.0 0.00 0.03 0.03 97 1019.1
20260831021603 71 218 0.0 0.0 0.00 0.03 0.03 97 1019.2
20260831020603 71 218 0.0 0.0 0.00 0.03 0.03 96 1019.3
20260831015603 71 218 0.0 0.0 0.01 0.03 0.03 96 1019.4
20260831014625 71 218 0.0 0.0 0.01 0.03 0.03 96 1019.5
20260831013603 72 218 0.0 0.0 0.01 0.03 0.03 96 1019.1
20260831012603 72 218 0.0 0.0 0.01 0.03 0.03 96 1019.0
20260831011603 72 218 0.0 0.0 0.01 0.03 0.03 96 1018.9
20260831010603 72 218 0.0 0.0 0.01 0.03 0.03 95 1018.9
20260831005603 72 218 0.0 0.0 0.01 0.02 0.02 95 1018.8
20260831004624 72 218 0.0 0.0 0.01 0.02 0.02 95 1018.6
20260831002603 73 218 0.0 0.0 0.00 0.01 0.01 94 1018.5
20260831001603 73 218 0.0 0.0 0.00 0.01 0.01 94 1018.3
20260831000603 73 218 0.0 0.0 0.00 0.01 0.01 93 1018.3
20260830235603 73 218 0.0 0.0 0.00 0.00 0.00 93 1018.0
20260830234603 74 218 0.0 0.0 0.00 0.00 0.00 92 1017.9
20260830233603 74 218 0.0 0.0 0.00 0.00 0.00 91 1017.8
20260830232603 75 218 0.0 0.0 0.00 0.00 0.00 90 1017.8
20260830231603 75 218 0.0 0.0 0.00 0.00 0.00 89 1017.7
20260830230624 75 218 0.0 0.0 0.00 0.00 0.00 88 1017.7
20260830225625 75 218 0.0 0.0 0.00 0.00 0.00 87 1017.8
20260830224624 76 218 0.0 0.0 0.00 0.00 0.00 88 1017.8
20260830223603 76 218 0.0 0.0 0.00 0.00 0.00 88 1017.9
20260830222603 76 218 0.0 0.0 0.00 0.00 0.00 87 1017.8
20260830221603 76 218 0.0 0.0 0.00 0.00 0.00 87 1017.9
20260830220603 77 218 0.0 0.0 0.00 0.00 0.00 87 1017.7
20260830215624 77 218 0.0 0.0 0.00 0.00 0.00 86 1017.9
20260830214624 77 218 0.0 0.0 0.00 0.00 0.00 85 1017.9
20260830213603 77 218 0.0 7.0 0.00 0.00 0.00 84 1017.9
20260830212603 77 213 0.0 3.0 0.00 0.00 0.00 84 1017.7
20260830211603 77 212 0.0 9.0 0.00 0.00 0.00 84 1017.6
20260830210603 77 211 0.0 7.0 0.00 0.00 0.00 84 1017.5
20260830205603 77 215 1.0 10.0 0.00 0.00 0.00 83 1017.7
20260830204603 77 213 0.0 7.0 0.00 0.00 0.00 84 1017.7
20260830203604 77 214 0.0 9.0 0.00 0.00 0.00 84 1018.1
20260830202603 77 224 1.0 14.0 0.00 0.00 0.00 84 1018.1
20260830201603 77 203 5.0 14.0 0.00 0.00 0.00 84 1018.4
20260830200624 76 222 2.0 7.0 0.00 0.00 0.00 85 1018.3
20260830195603 76 220 1.0 8.0 0.00 0.00 0.00 85 1018.6
20260830194603 75 215 2.0 6.0 0.00 0.00 0.00 86 1018.6
20260830193603 75 212 1.0 4.0 0.00 0.00 0.00 88 1018.7
20260830192603 75 213 0.0 0.0 0.00 0.00 0.00 87 1018.9
20260830191603 75 212 0.0 6.0 0.00 0.00 0.00 87 1019.1
20260830190602 75 221 1.0 7.0 0.00 0.00 0.00 87 1019.1
20260830185603 74 204 0.0 8.0 0.00 0.00 0.00 87 1019.3
20260830184624 74 236 1.0 6.0 0.00 0.00 0.00 87 1019.3
20260830183603 74 219 1.0 10.0 0.00 0.00 0.00 86 1019.4
20260830182603 74 233 0.0 10.0 0.00 0.00 0.00 85 1019.6
20260830180602 74 220 1.0 6.0 0.00 0.00 0.00 85 1019.7
20260830175624 74 206 1.0 12.0 0.00 0.00 0.00 85 1019.8
20260830174603 74 200 4.0 11.0 0.00 0.00 0.00 85 1020.0
20260830173603 74 231 1.0 10.0 0.00 0.00 0.00 84 1020.1
20260830172603 74 199 0.0 5.0 0.00 0.00 0.00 83 1020.0
20260830171603 74 221 1.0 8.0 0.00 0.00 0.00 83 1020.3
20260830170603 74 215 2.0 11.0 0.00 0.00 0.00 81 1020.4
20260830165604 74 218 1.0 10.0 0.00 0.00 0.00 80 1020.2
20260830164603 74 220 1.0 7.0 0.00 0.00 0.00 80 1020.3
20260830163604 74 210 0.0 6.0 0.00 0.00 0.00 78 1020.3
20260830162602 75 196 2.0 7.0 0.00 0.00 0.00 76 1020.3
20260830161603 75 217 3.0 10.0 0.00 0.00 0.00 75 1020.4
20260830160624 76 210 2.0 14.0 0.00 0.00 0.00 74 1020.6
20260830155624 75 217 4.0 11.0 0.00 0.00 0.00 73 1020.8
20260830154603 76 228 2.0 11.0 0.00 0.00 0.00 72 1021.0
20260830153603 75 222 0.0 9.0 0.00 0.00 0.00 73 1020.8
20260830152603 74 216 1.0 7.0 0.00 0.00 0.00 73 1020.9
20260830151603 74 224 0.0 7.0 0.00 0.00 0.00 72 1021.0
20260830150602 74 221 1.0 4.0 0.00 0.00 0.00 70 1021.1
20260830145604 74 222 0.0 4.0 0.00 0.00 0.00 73 1021.4
20260830144647 73 222 0.0 8.0 0.00 0.00 0.00 72 1021.6
20260830143603 73 205 2.0 6.0 0.00 0.00 0.00 71 1021.6
20260830142603 73 216 0.0 5.0 0.00 0.00 0.00 71 1021.7
20260830141626 73 218 0.0 4.0 0.00 0.00 0.00 73 1021.6
20260830140603 73 218 0.0 5.0 0.00 0.00 0.00 73 1021.6
20260830135624 72 233 3.0 9.0 0.00 0.00 0.00 73 1021.6
20260830134603 71 317 0.0 1.0 0.00 0.00 0.00 80 1021.7
20260830133645 70 324 1.0 4.0 0.00 0.00 0.00 82 1021.7
20260830132603 69 350 0.0 0.0 0.00 0.00 0.00 85 1021.7
20260830131603 67 355 0.0 2.0 0.00 0.00 0.00 92 1021.8
20260830130603 65 356 1.0 2.0 0.00 0.00 0.00 98 1022.0
20260830125603 63 5 0.0 0.0 0.00 0.00 0.00 98 1022.2
20260830124603 62 5 0.0 0.0 0.00 0.00 0.00 98 1022.2
20260830123603 61 5 0.0 0.0 0.00 0.00 0.00 98 1022.3
20260830122602 60 5 0.0 0.0 0.00 0.00 0.00 98 1022.3
20260830121603 60 5 0.0 0.0 0.00 0.00 0.00 97 1022.3
20260830120603 59 5 0.0 0.0 0.00 0.00 0.00 97 1022.4
20260830115624 59 5 0.0 0.0 0.00 0.00 0.00 97 1022.4
20260830114603 59 5 0.0 0.0 0.00 0.00 0.00 97 1022.6
20260830113603 59 5 0.0 0.0 0.00 0.00 0.00 97 1022.6
20260830112602 59 5 0.0 0.0 0.00 0.00 0.00 97 1022.5
20260830111624 58 5 0.0 0.0 0.00 0.00 0.00 97 1022.4
20260830110603 58 5 0.0 0.0 0.00 0.00 0.00 97 1022.4
20260830105603 58 5 0.0 0.0 0.00 0.00 0.00 97 1022.4
20260830104603 58 5 0.0 0.0 0.00 0.00 0.00 97 1022.3
20260830103602 58 5 0.0 0.0 0.00 0.00 0.00 97 1022.3
20260830102604 58 5 0.0 0.0 0.00 0.00 0.00 97 1022.4
20260830101603 58 5 0.0 0.0 0.00 0.00 0.00 97 1022.4
20260830100603 58 5 0.0 0.0 0.00 0.00 0.00 97 1022.4
20260830095603 58 5 0.0 0.0 0.00 0.00 0.00 97 1022.3
20260830094602 58 5 0.0 0.0 0.00 0.00 0.00 97 1022.4
20260830093603 58 5 0.0 0.0 0.00 0.00 0.00 96 1022.5
20260830092602 58 5 0.0 0.0 0.00 0.00 0.00 97 1022.5
20260830091603 58 5 0.0 0.0 0.00 0.00 0.00 97 1022.6
20260830090603 58 5 0.0 0.0 0.00 0.00 0.00 97 1022.5
20260830085624 58 5 0.0 0.0 0.00 0.00 0.00 96 1022.5
20260830084604 58 5 0.0 0.0 0.00 0.00 0.00 96 1022.5
20260830083604 58 5 0.0 0.0 0.00 0.00 0.00 96 1022.6
20260830082626 58 5 0.0 0.0 0.00 0.00 0.00 97 1022.7
20260830081604 58 5 0.0 0.0 0.00 0.00 0.00 96 1022.7
20260830080604 58 5 0.0 0.0 0.00 0.00 0.00 97 1022.8
20260830075605 58 5 0.0 0.0 0.00 0.00 0.00 96 1022.8
20260830074604 58 5 0.0 0.0 0.00 0.00 0.00 96 1022.7
20260830073604 58 5 0.0 0.0 0.00 0.00 0.00 96 1022.8
20260830072604 58 5 0.0 0.0 0.00 0.00 0.00 96 1022.8
20260830071604 58 5 0.0 0.0 0.00 0.00 0.00 96 1022.8
20260830070604 58 5 0.0 0.0 0.00 0.00 0.00 96 1022.8
20260830065604 58 5 0.0 0.0 0.00 0.00 0.00 96 1022.9
20260830064604 58 5 0.0 0.0 0.00 0.00 0.00 96 1022.7
20260830063604 58 5 0.0 0.0 0.00 0.00 0.00 96 1022.8